2014-12-05 00:03:23 r, 16.19m,0000000030Hz,0000015578c,0000000.034s, 009.3C,00002195
2014-12-05 00:13:23 r, 16.50m,0000000022Hz,0000020763c,0000000.045s, 009.3C,00002195
2014-12-05 00:23:23 r, 16.59m,0000000021Hz,0000022413c,0000000.049s, 009.3C,00002195
2014-12-05 00:33:23 r, 16.68m,0000000019Hz,0000024384c,0000000.053s, 009.3C,00002195
2014-12-05 00:43:23 r, 16.74m,0000000018Hz,0000025821c,0000000.056s, 009.3C,00002195
2014-12-05 00:53:23 r, 16.80m,0000000017Hz,0000027468c,0000000.060s, 009.3C,00002195
2014-12-05 01:03:23 r, 16.86m,0000000016Hz,0000028686c,0000000.062s, 009.0C,00002195
2014-12-05 01:13:23 r, 16.90m,0000000015Hz,0000029729c,0000000.065s, 009.0C,00002195
2014-12-05 01:23:23 r, 16.94m,0000000015Hz,0000030721c,0000000.067s, 009.0C,00002195
2014-12-05 01:33:23 r, 16.96m,0000000014Hz,0000031633c,0000000.069s, 008.7C,00002195
2014-12-05 01:43:23 r, 17.00m,0000000014Hz,0000032671c,0000000.071s, 008.7C,00002195
2014-12-05 01:53:23 r, 17.04m,0000000013Hz,0000034082c,0000000.074s, 008.3C,00002195
2014-12-05 02:03:23 r, 17.06m,0000000013Hz,0000034608c,0000000.075s, 008.3C,00002195
2014-12-05 02:13:23 r, 17.08m,0000000013Hz,0000035492c,0000000.077s, 008.0C,00002195
2014-12-05 02:23:23 r, 17.11m,0000000013Hz,0000036496c,0000000.079s, 008.3C,00002195
2014-12-05 02:33:23 r, 17.14m,0000000013Hz,0000037470c,0000000.081s, 008.0C,00002195
2014-12-05 02:43:23 r, 17.16m,0000000012Hz,0000038305c,0000000.083s, 008.0C,00002195
2014-12-05 02:53:23 r, 17.17m,0000000012Hz,0000038530c,0000000.084s, 008.0C,00002195
2014-12-05 03:03:23 r, 17.19m,0000000012Hz,0000039149c,0000000.085s, 007.7C,00002195
2014-12-05 03:13:23 r, 17.22m,0000000011Hz,0000040199c,0000000.087s, 007.4C,00002195
2014-12-05 03:23:23 r, 17.24m,0000000011Hz,0000041215c,0000000.089s, 007.0C,00002195
2014-12-05 03:33:23 r, 17.27m,0000000011Hz,0000042052c,0000000.091s, 007.0C,00002195
2014-12-05 03:43:23 r, 17.27m,0000000011Hz,0000042192c,0000000.092s, 007.0C,00002195
2014-12-05 03:53:23 r, 17.29m,0000000011Hz,0000043083c,0000000.093s, 007.0C,00002195
2014-12-05 04:03:23 r, 17.28m,0000000011Hz,0000042534c,0000000.092s, 007.0C,00002195
2014-12-05 04:13:23 r, 17.30m,0000000011Hz,0000043266c,0000000.094s, 007.0C,00002195
2014-12-05 04:23:23 r, 17.32m,0000000011Hz,0000044106c,0000000.096s, 006.7C,00002195
2014-12-05 04:33:23 r, 17.35m,0000000010Hz,0000045288c,0000000.098s, 006.7C,00002195
2014-12-05 04:43:23 r, 17.36m,0000000010Hz,0000046013c,0000000.100s, 006.7C,00002195
2014-12-05 04:53:23 r, 17.38m,0000000010Hz,0000046846c,0000000.102s, 006.7C,00002195
2014-12-05 05:03:23 r, 17.39m,0000000010Hz,0000047071c,0000000.102s, 006.4C,00002195
2014-12-05 05:13:23 r, 17.37m,0000000010Hz,0000046143c,0000000.100s, 006.4C,00002195
2014-12-05 05:23:23 r, 17.39m,0000000009Hz,0000046896c,0000000.102s, 006.4C,00002195
2014-12-05 05:33:23 r, 17.27m,0000000010Hz,0000042422c,0000000.092s, 006.4C,00002195
2014-12-05 05:43:23 r, 17.16m,0000000012Hz,0000038353c,0000000.083s, 006.1C,00002195
2014-12-05 05:53:23 r, 16.89m,0000000015Hz,0000029668c,0000000.064s, 006.4C,00002195
2014-12-05 06:03:23 r, 17.10m,0000000013Hz,0000036166c,0000000.078s, 006.4C,00002195
2014-12-05 06:13:23 r, 17.41m,0000000009Hz,0000048105c,0000000.104s, 006.7C,00002195
2014-12-05 06:23:23 r, 17.46m,0000000009Hz,0000049956c,0000000.108s, 006.7C,00002195
2014-12-05 06:33:23 r, 17.47m,0000000009Hz,0000050916c,0000000.110s, 006.4C,00002195
2014-12-05 06:43:23 r, 17.46m,0000000009Hz,0000050137c,0000000.109s, 006.4C,00002195
2014-12-05 06:53:23 r, 17.38m,0000000010Hz,0000046578c,0000000.101s, 006.4C,00002195
2014-12-05 07:03:23 r, 17.01m,0000000013Hz,0000033504c,0000000.073s, 006.1C,00002195
2014-12-05 07:13:23 r, 16.17m,0000000030Hz,0000015234c,0000000.033s, 006.1C,00002195
2014-12-05 07:23:23 r, 14.71m,0000000114Hz,0000003988c,0000000.009s, 005.8C,00002195
2014-12-05 07:33:23 r, 12.91m,0000000610Hz,0000000000c,0000000.000s, 005.8C,00002195
2014-12-05 07:43:23 r, 10.97m,0000003628Hz,0000000000c,0000000.000s, 005.8C,00002195
2014-12-05 07:53:23 r, 09.25m,0000017840Hz,0000000000c,0000000.000s, 005.8C,00002195
2014-12-05 08:03:23 r, 07.99m,0000056786Hz,0000000000c,0000000.000s, 005.8C,00002195
2014-12-05 08:13:23 r, 07.10m,0000128213Hz,0000000000c,0000000.000s, 005.8C,00002195
2014-12-05 08:23:23 r, 06.47m,0000228779Hz,0000000000c,0000000.000s, 005.4C,00002195
2014-12-05 08:33:23 r, 06.03m,0000345418Hz,0000000000c,0000000.000s, 005.8C,00002195
2014-12-05 08:43:23 r, 00.00m,0000461781Hz,0000000000c,0000000.000s, 006.1C,00002195
2014-12-05 08:53:23 r, 00.00m,0000561236Hz,0000000000c,0000000.000s, 006.4C,00002195
2014-12-05 09:03:23 r, 00.00m,0000561366Hz,0000000000c,0000000.000s, 006.4C,00002195
2014-12-05 09:13:23 r, 00.00m,0000561346Hz,0000000000c,0000000.000s, 007.0C,00002195
2014-12-05 09:23:23 r, 00.00m,0000561551Hz,0000000000c,0000000.000s, 007.7C,00002195
2014-12-05 09:33:23 r, 00.00m,0000561804Hz,0000000000c,0000000.000s, 009.3C,00002195
2014-12-05 09:43:23 r, 00.00m,0000561966Hz,0000000000c,0000000.000s, 010.3C,00002195
2014-12-05 09:53:23 r, 00.00m,0000562048Hz,0000000000c,0000000.000s, 011.2C,00002195
2014-12-05 10:03:23 r, 00.00m,0000562179Hz,0000000000c,0000000.000s, 012.5C,00002195
2014-12-05 10:13:23 r, 00.00m,0000562320Hz,0000000000c,0000000.000s, 013.2C,00002195
2014-12-05 10:23:23 r, 00.00m,0000562393Hz,0000000000c,0000000.000s, 013.8C,00002195
2014-12-05 10:33:23 r, 00.00m,0000562338Hz,0000000000c,0000000.000s, 013.8C,00002195
2014-12-05 10:43:23 r, 00.00m,0000562427Hz,0000000000c,0000000.000s, 014.5C,00002195
2014-12-05 10:53:23 r, 00.00m,0000562578Hz,0000000000c,0000000.000s, 015.1C,00002195
2014-12-05 11:03:23 r, 00.00m,0000562742Hz,0000000000c,0000000.000s, 016.1C,00002195
2014-12-05 11:13:23 r, 00.00m,0000562847Hz,0000000000c,0000000.000s, 017.0C,00002195
2014-12-05 11:23:23 r, 00.00m,0000562695Hz,0000000000c,0000000.000s, 015.7C,00002195
2014-12-05 11:33:23 r, 00.00m,0000562457Hz,0000000000c,0000000.000s, 014.5C,00002195
2014-12-05 11:43:23 r, 00.00m,0000562409Hz,0000000000c,0000000.000s, 013.2C,00002195
2014-12-05 11:53:23 r, 00.00m,0000562201Hz,0000000000c,0000000.000s, 012.5C,00002195
2014-12-05 12:03:23 r, 00.00m,0000562185Hz,0000000000c,0000000.000s, 012.2C,00002195
2014-12-05 12:13:23 r, 00.00m,0000562206Hz,0000000000c,0000000.000s, 012.5C,00002195
2014-12-05 12:23:23 r, 00.00m,0000562217Hz,0000000000c,0000000.000s, 012.5C,00002195
2014-12-05 12:33:23 r, 00.00m,0000562259Hz,0000000000c,0000000.000s, 012.8C,00002195
2014-12-05 12:43:23 r, 00.00m,0000562323Hz,0000000000c,0000000.000s, 013.2C,00002195
2014-12-05 12:53:23 r, 00.00m,0000562346Hz,0000000000c,0000000.000s, 013.2C,00002195
2014-12-05 13:03:23 r, 00.00m,0000562333Hz,0000000000c,0000000.000s, 013.5C,00002195
2014-12-05 13:13:23 r, 00.00m,0000562366Hz,0000000000c,0000000.000s, 013.5C,00002195
2014-12-05 13:23:23 r, 00.00m,0000562288Hz,0000000000c,0000000.000s, 013.5C,00002195
2014-12-05 13:33:23 r, 00.00m,0000562332Hz,0000000000c,0000000.000s, 013.5C,00002195
2014-12-05 13:43:23 r, 00.00m,0000562175Hz,0000000000c,0000000.000s, 012.8C,00002195
2014-12-05 13:53:23 r, 00.00m,0000562109Hz,0000000000c,0000000.000s, 012.5C,00002195
2014-12-05 14:03:23 r, 00.00m,0000562053Hz,0000000000c,0000000.000s, 011.9C,00002195
2014-12-05 14:13:23 r, 00.00m,0000562045Hz,0000000000c,0000000.000s, 011.6C,00002195
2014-12-05 14:23:23 r, 00.00m,0000562114Hz,0000000000c,0000000.000s, 011.2C,00002195
2014-12-05 14:33:23 r, 00.00m,0000561988Hz,0000000000c,0000000.000s, 011.2C,00002195
2014-12-05 14:43:23 r, 00.00m,0000561873Hz,0000000000c,0000000.000s, 010.9C,00002195
2014-12-05 14:53:23 r, 00.00m,0000561808Hz,0000000000c,0000000.000s, 010.6C,00002195
2014-12-05 15:03:23 r, 00.00m,0000561813Hz,0000000000c,0000000.000s, 010.6C,00002195
2014-12-05 15:13:23 r, 00.00m,0000561743Hz,0000000000c,0000000.000s, 010.3C,00002195
2014-12-05 15:23:23 r, 00.00m,0000561822Hz,0000000000c,0000000.000s, 010.3C,00002195
2014-12-05 15:33:23 r, 00.00m,0000561790Hz,0000000000c,0000000.000s, 010.3C,00002195
2014-12-05 15:43:23 r, 00.00m,0000561829Hz,0000000000c,0000000.000s, 010.3C,00002195
2014-12-05 15:53:23 r, 00.00m,0000462895Hz,0000000000c,0000000.000s, 009.9C,00002195
2014-12-05 16:03:23 r, 06.02m,0000348846Hz,0000000000c,0000000.000s, 009.9C,00002195
2014-12-05 16:13:23 r, 06.44m,0000235647Hz,0000000000c,0000000.000s, 009.6C,00002195
2014-12-05 16:23:23 r, 07.04m,0000136681Hz,0000000000c,0000000.000s, 009.6C,00002195
2014-12-05 16:33:23 r, 07.88m,0000062796Hz,0000000000c,0000000.000s, 009.3C,00002195
2014-12-05 16:43:23 r, 09.10m,0000020390Hz,0000000000c,0000000.000s, 009.0C,00002195
2014-12-05 16:53:23 r, 10.75m,0000004501Hz,0000000000c,0000000.000s, 009.0C,00002195
2014-12-05 17:03:23 r, 12.61m,0000000806Hz,0000000000c,0000000.000s, 008.7C,00002195
2014-12-05 17:13:23 r, 14.46m,0000000147Hz,0000000000c,0000000.000s, 008.7C,00002195
2014-12-05 17:23:23 r, 15.97m,0000000037Hz,0000012645c,0000000.027s, 008.3C,00002195
2014-12-05 17:33:23 r, 16.82m,0000000017Hz,0000027892c,0000000.061s, 008.3C,00002195
2014-12-05 17:43:23 r, 17.16m,0000000012Hz,0000038214c,0000000.083s, 008.0C,00002195
2014-12-05 17:53:23 r, 17.25m,0000000011Hz,0000041428c,0000000.090s, 008.0C,00002195
2014-12-05 18:03:23 r, 17.27m,0000000011Hz,0000042046c,0000000.091s, 007.7C,00002195
2014-12-05 18:13:23 r, 17.26m,0000000011Hz,0000041941c,0000000.091s, 007.7C,00002195
2014-12-05 18:23:23 r, 17.26m,0000000011Hz,0000041833c,0000000.091s, 007.4C,00002195
2014-12-05 18:33:23 r, 17.24m,0000000012Hz,0000041210c,0000000.089s, 007.4C,00002195
2014-12-05 18:43:23 r, 17.23m,0000000011Hz,0000040783c,0000000.089s, 007.0C,00002195
2014-12-05 18:53:23 r, 17.20m,0000000011Hz,0000039600c,0000000.086s, 007.0C,00002195
2014-12-05 19:03:23 r, 17.20m,0000000012Hz,0000039468c,0000000.086s, 006.7C,00002195
2014-12-05 19:13:23 r, 17.17m,0000000012Hz,0000038639c,0000000.084s, 006.7C,00002195
2014-12-05 19:23:23 r, 17.16m,0000000012Hz,0000038281c,0000000.083s, 006.7C,00002195
2014-12-05 19:33:23 r, 17.05m,0000000013Hz,0000034506c,0000000.075s, 006.4C,00002195
2014-12-05 19:43:23 r, 17.02m,0000000014Hz,0000033770c,0000000.073s, 006.4C,00002195
2014-12-05 19:53:23 r, 17.00m,0000000014Hz,0000032928c,0000000.071s, 006.4C,00002195
2014-12-05 20:03:23 r, 16.97m,0000000015Hz,0000032078c,0000000.070s, 006.7C,00002195
2014-12-05 20:13:23 r, 16.95m,0000000014Hz,0000031386c,0000000.068s, 006.7C,00002195
2014-12-05 20:23:23 r, 16.90m,0000000016Hz,0000030011c,0000000.065s, 006.7C,00002195
2014-12-05 20:33:23 r, 16.87m,0000000016Hz,0000029113c,0000000.063s, 006.7C,00002195
2014-12-05 20:43:23 r, 16.81m,0000000017Hz,0000027619c,0000000.060s, 006.7C,00002195
2014-12-05 20:53:23 r, 16.75m,0000000017Hz,0000026063c,0000000.057s, 006.7C,00002195
2014-12-05 21:03:23 r, 16.68m,0000000019Hz,0000024499c,0000000.053s, 006.4C,00002195
2014-12-05 21:13:23 r, 16.51m,0000000022Hz,0000020881c,0000000.045s, 006.4C,00002195
2014-12-05 21:23:23 r, 16.24m,0000000028Hz,0000016293c,0000000.035s, 006.4C,00002195
2014-12-05 21:33:23 r, 15.98m,0000000036Hz,0000012826c,0000000.028s, 006.4C,00002195
2014-12-05 21:43:23 r, 15.94m,0000000037Hz,0000012457c,0000000.027s, 006.1C,00002195
2014-12-05 21:53:23 r, 15.66m,0000000048Hz,0000009536c,0000000.021s, 006.1C,00002195
2014-12-05 22:03:23 r, 15.55m,0000000053Hz,0000008678c,0000000.019s, 006.1C,00002195
2014-12-05 22:13:23 r, 15.44m,0000000059Hz,0000007795c,0000000.017s, 005.8C,00002195
2014-12-05 22:23:23 r, 15.32m,0000000066Hz,0000006979c,0000000.015s, 005.8C,00002195
2014-12-05 22:33:23 r, 15.24m,0000000071Hz,0000006501c,0000000.014s, 005.8C,00002195
2014-12-05 22:43:23 r, 15.18m,0000000076Hz,0000006119c,0000000.013s, 005.8C,00002195
2014-12-05 22:53:23 r, 15.09m,0000000081Hz,0000005660c,0000000.012s, 005.8C,00002195
2014-12-05 23:03:23 r, 15.00m,0000000088Hz,0000005247c,0000000.011s, 005.8C,00002195
2014-12-05 23:13:23 r, 14.88m,0000000098Hz,0000004698c,0000000.010s, 005.8C,00002195
2014-12-05 23:23:23 r, 14.79m,0000000106Hz,0000004289c,0000000.009s, 005.8C,00002195
2014-12-05 23:33:23 r, 14.77m,0000000109Hz,0000004224c,0000000.009s, 005.4C,00002195
2014-12-05 23:43:23 r, 14.75m,0000000112Hz,0000004131c,0000000.009s, 005.4C,00002195
2014-12-05 23:53:23 r, 14.71m,0000000115Hz,0000003989c,0000000.009s, 005.1C,00002195
